TimePST,TemperatureF,Dew PointF,Humidity,Sea Level PressureIn,VisibilityMPH,Wind Direction,Wind SpeedMPH,Gust SpeedMPH,PrecipitationIn,Events,Conditions,WindDirDegrees,DateUTC
12:56 AM,60.1,41.0,49,30.09,10.0,Calm,Calm,-,N/A,,Clear,0,2012-11-05 08:56:00
1:56 AM,60.1,41.0,49,30.07,10.0,Calm,Calm,-,N/A,,Clear,0,2012-11-05 09:56:00
3:56 AM,57.0,41.0,55,30.04,10.0,ESE,3.5,-,N/A,,Clear,110,2012-11-05 11:56:00
4:56 AM,55.9,41.0,57,30.05,10.0,Calm,Calm,-,N/A,,Clear,0,2012-11-05 12:56:00
5:56 AM,55.9,41.0,57,30.05,10.0,East,3.5,-,N/A,,Clear,100,2012-11-05 13:56:00
6:56 AM,55.0,41.0,59,30.07,10.0,Calm,Calm,-,N/A,,Clear,0,2012-11-05 14:56:00
7:56 AM,64.0,43.0,46,30.08,10.0,Calm,Calm,-,N/A,,Clear,0,2012-11-05 15:56:00
8:56 AM,73.9,39.9,29,30.08,10.0,Calm,Calm,-,N/A,,Clear,0,2012-11-05 16:56:00
9:56 AM,82.0,37.9,21,30.07,10.0,Calm,Calm,-,N/A,,Clear,0,2012-11-05 17:56:00
10:56 AM,90.0,37.0,15,30.06,10.0,Calm,Calm,-,N/A,,Clear,0,2012-11-05 18:56:00
11:56 AM,93.9,32.0,11,30.02,10.0,Variable,4.6,-,N/A,,Clear,0,2012-11-05 19:56:00
12:56 PM,93.9,28.0,10,30.00,10.0,West,9.2,-,N/A,,Clear,260,2012-11-05 20:56:00
1:56 PM,93.9,30.0,10,29.98,10.0,Variable,4.6,-,N/A,,Clear,0,2012-11-05 21:56:00
2:56 PM,93.0,33.1,12,29.98,10.0,WNW,10.4,-,N/A,,Clear,300,2012-11-05 22:56:00
3:56 PM,87.1,39.0,18,29.99,10.0,WNW,6.9,-,N/A,,Clear,300,2012-11-05 23:56:00
4:56 PM,75.9,39.9,27,30.00,10.0,NW,9.2,-,N/A,,Clear,310,2012-11-06 00:56:00
5:56 PM,73.0,39.0,29,30.02,10.0,Calm,Calm,-,N/A,,Clear,0,2012-11-06 01:56:00
6:56 PM,68.0,37.9,33,30.03,10.0,Calm,Calm,-,N/A,,Clear,0,2012-11-06 02:56:00
7:56 PM,64.0,39.0,40,30.04,10.0,Variable,3.5,-,N/A,,Clear,0,2012-11-06 03:56:00
8:56 PM,61.0,37.9,42,30.04,10.0,ESE,3.5,-,N/A,,Clear,120,2012-11-06 04:56:00
11:56 PM,55.9,37.9,51,30.04,10.0,ESE,3.5,-,N/A,,Clear,110,2012-11-06 07:56:00